Regional Weather Roundup
Issued by NWS Kansas City/Pleasant Hill, MO

Home | Current Version | Previous Version | Text Only | Print | Product List | Glossary On
Versions: 1 2 3 4 5 6 7 8 9 10 11 12 13 14 15 16 17 18 19 20 21 22 23 24 25 26 27 28
000
ASUS43 KEAX 251410
RWREAX

WEATHER ROUNDUP FOR EASTERN KANSAS AND NORTHWEST MISSOURI
NATIONAL WEATHER SERVICE KANSAS CITY/PLEASANT HILL MO
900 AM CDT MON SEP 25 2017

KSZ040-057-103>105-MOZ028-029-037-043-251500-
...KANSAS CITY METROPOLITAN AREA...

CITY           SKY/WX    TMP DP  RH WIND       PRES   REMARKS
K.C. INTL      MOSUNNY   74  67  78 S10       29.95S
K.C. DOWNTOWN  MOSUNNY   75  66  73 S7        29.95R
LEES SUMMIT    SUNNY     72  65  78 S9        29.97R
OLATHE - IXD   SUNNY     72  65  78 S7        29.97R
OLATHE - OJC   SUNNY     70  67  90 S5        29.96R
LAWRENCE       SUNNY     71  67  87 SE6       29.94S

$$

MOZ001>008-011>017-020>025-030>033-038>040-044>046-053-054-251500-
...NORTHERN AND CENTRAL MISSOURI...

CITY           SKY/WX    TMP DP  RH WIND       PRES   REMARKS
ST. JOSEPH     MOSUNNY   74  67  78 S7        29.94S
MOSBY          SUNNY     70  64  83 SE3       29.96S
WARRENSBURG    SUNNY     72  64  78 S7        29.97R
WHITEMAN AFB   MOSUNNY   72  66  81 S10       29.97R
CLINTON        SUNNY     73  66  78 S5        29.98S
SEDALIA        SUNNY     76  68  76 S8        30.00R
WARSAW         NOT AVBL
CHILLICOTHE      N/A     70  67  90 S3        29.97S
KIRKSVILLE     MOSUNNY   73  66  78 SW5       29.99R

$$

MOZ041-047>049-056>058-063>065-088>090-097-251500-
...EASTERN AND SOUTHERN MISSOURI...

CITY           SKY/WX    TMP DP  RH WIND       PRES   REMARKS
ST. LOUIS INTL MOSUNNY   78  67  68 S3        30.03R
SPIRIT OF STL  SUNNY     74  67  78 CALM      30.01S
COLUMBIA       SUNNY     72  67  84 S8        30.01R
JEFFERSON CITY SUNNY     71  64  78 E6        30.00R
ROLLA          SUNNY     74  66  76 S7        30.04R
OSAGE BEACH    SUNNY     71  65  81 S5        30.02R
SPRINGFIELD    SUNNY     73  67  81 SE10      30.01R
BRANSON        SUNNY     72  66  83 CALM      30.03S
JOPLIN         SUNNY     74  67  78 S8        29.98R
WEST PLAINS    SUNNY     71  66  84 E3        30.05S

$$

IAZ060-094-KSZ022-034>040-054-083-096-NEZ052-066-093-251500-
...KANSAS...SOUTHEAST NEBRASKA AND IOWA...

CITY           SKY/WX    TMP DP  RH WIND       PRES   REMARKS
TOPEKA         CLOUDY    74  68  81 S7        29.93S
MANHATTAN      CLOUDY    74  66  76 SW8       29.90S
EMPORIA        MOSUNNY   71  65  81 S15       29.93S
CHANUTE        SUNNY     73  66  78 S9        29.96R
WICHITA        MOSUNNY   74  67  78 S10       29.90S
OMAHA          CLOUDY    60  57  89 N12       29.95F
LINCOLN        LGT RAIN  59  57  93 E6        29.96F
FALLS CITY     SUNNY     72  66  81 W5        29.92R
LAMONI         MOSUNNY   70  65  84 VRB6      29.96S
DES MOINES     MOSUNNY   71  65  81 W3        29.95R

$$





USA.gov is the U.S. government's official web portal to all federal, state and local government web resources and services.